Location: Bottenau
(48.5138°N, 8.0462°E)
Time: 20:01:11
(UTC+00:00)

SPOT 5 - Pass Details

Date: 18 April 2021
Orbit: 624 x 814 km, 98.2° (Epoch: 18 May)

Event Time Altitude Azimuth Distance (km) Brightness Sun altitude
Exits shadow 21:19:28 58° 218° (SW) 782 2.9 -24.0°
Maximum altitude 21:20:03 65° 258° (WSW) 744 2.9 -24.1°
Drops below altitude 10° 21:24:46 10° 341° (NNW) 2,176 6.3 -24.5°
Sets 21:27:07 0° 344° (NNW) 3,131 7.4 -24.7°
